Weather History for KLFT - August, 2013

Change the Weather History Date:

Monday, August 5, 2013

  Actual Average Record
Temperature  
Mean Temperature 86 °F 84 °F  
Max Temperature 93 °F 93 °F 101 °F (1896)
Min Temperature 79 °F 75 °F 63 °F (1915)
Cooling Degree Days 21 19  
Month to date cooling degree days 108 95  
Year to date cooling degree days 1648 1779  
Since 1 June cooling degree days 1184 1165  
Growing Degree Days 35 (Base 50)    
Moisture  
Dew Point 75 °F    
Average Humidity 74    
Maximum Humidity 91    
Minimum Humidity 56    
Precipitation  
Precipitation T in 0.15 in 2.50 in (1917)
Month to date precipitation 1.14 0.77  
Year to date precipitation 40.26 36.77  
Sea Level Pressure  
Sea Level Pressure 30.02 in    
Wind  
Wind Speed 6 mph (WSW)    
Max Wind Speed 16 mph    
Max Gust Speed 22 mph    
Visibility 10 miles    
Events      
T = Trace of Precipitation, MM = Missing Value Source: NWS Daily Summary

Daily Weather History Graph

Daily Weather History Graph

Search for Another Location

Airport or City:

Trip Planner

Search our weather history database for the weather conditions in past years. The results will help you decide how hot, cold, wet, or windy it might be!

Date:

Astronomy

Aug. 05, 2013 Rise Set
Actual Time 6:29 AM CDT 7:58 PM CDT
Civil Twilight 6:03 AM CDT 8:23 PM CDT
Nautical Twilight 5:32 AM CDT 8:54 PM CDT
Astronomical Twilight 5:00 AM CDT 9:26 PM CDT
Moon 5:23 AM CDT (8/5) 7:01 PM CDT (8/5)
Length of Visible Light 14h 20m
Length of Day
13h 29m
Waning Crescent, 1% of the Moon is Illuminated
Aug 5
Waning Crescent
Aug 6
New
Aug 14
First Quarter
Aug 20
Full
Aug 28
Last Quarter

Hourly Weather History & Observations

Time (CDT) Temp. Heat Index Dew Point Humidity Pressure Visibility Wind Dir Wind Speed Gust Speed Precip Events Conditions
12:53 AM 80.1 °F 85.4 °F 75.9 °F 87% 30.06 in 10.0 mi Calm Calm - N/A   Clear
1:53 AM 79.0 °F - 75.9 °F 90% 30.04 in 10.0 mi Calm Calm - N/A   Clear
2:53 AM 79.0 °F - 75.9 °F 90% 30.03 in 10.0 mi WSW 3.5 mph - N/A   Clear
3:53 AM 80.1 °F 85.4 °F 75.9 °F 87% 30.02 in 10.0 mi Calm Calm - N/A   Clear
4:53 AM 80.1 °F 85.4 °F 75.9 °F 87% 30.03 in 10.0 mi West 3.5 mph - N/A   Clear
5:53 AM 79.0 °F - 75.9 °F 90% 30.04 in 10.0 mi Calm Calm - N/A   Clear
6:53 AM 80.1 °F 85.4 °F 75.9 °F 87% 30.05 in 10.0 mi Calm Calm - N/A   Clear
7:53 AM 82.0 °F 90.2 °F 77.0 °F 85% 30.06 in 10.0 mi WNW 3.5 mph - N/A   Clear
8:53 AM 84.0 °F 93.7 °F 77.0 °F 79% 30.07 in 10.0 mi West 6.9 mph - N/A   Clear
9:22 AM 84.2 °F 94.1 °F 77.0 °F 79% 30.07 in 10.0 mi WNW 6.9 mph - N/A   Mostly Cloudy
9:40 AM 86.0 °F 96.9 °F 77.0 °F 74% 30.07 in 10.0 mi West 6.9 mph - N/A   Partly Cloudy
9:53 AM 87.1 °F 98.8 °F 77.0 °F 72% 30.07 in 10.0 mi Variable 6.9 mph - N/A   Scattered Clouds
10:53 AM 88.0 °F 98.5 °F 75.9 °F 67% 30.06 in 10.0 mi Variable 3.5 mph - N/A   Mostly Cloudy
11:00 AM 89.6 °F 99.8 °F 75.2 °F 62% 30.06 in 10.0 mi West 5.8 mph - N/A   Partly Cloudy
11:53 AM 90.0 °F 99.0 °F 73.9 °F 59% 30.05 in 10.0 mi West 3.5 mph - N/A   Scattered Clouds
12:53 PM 91.0 °F 99.3 °F 73.0 °F 55% 30.03 in 10.0 mi WNW 9.2 mph - N/A   Scattered Clouds
1:53 PM 82.9 °F 88.0 °F 72.0 °F 69% 30.03 in 10.0 mi South 12.7 mph - N/A   Mostly Cloudy
2:53 PM 90.0 °F 99.0 °F 73.9 °F 59% 30.01 in 10.0 mi South 6.9 mph - 0.00 in   Clear
3:53 PM 86.0 °F 93.8 °F 73.9 °F 67% 29.99 in 10.0 mi SW 11.5 mph - N/A   Partly Cloudy
4:53 PM 88.0 °F 95.6 °F 73.0 °F 61% 29.98 in 10.0 mi SSW 4.6 mph - N/A   Scattered Clouds
5:53 PM 89.1 °F 101.4 °F 77.0 °F 67% 29.96 in 10.0 mi Variable 4.6 mph - N/A   Scattered Clouds
6:53 PM 90.0 °F 96.9 °F 72.0 °F 55% 29.96 in 10.0 mi SSW 13.8 mph 18.4 mph N/A   Clear
7:53 PM 87.1 °F 93.6 °F 72.0 °F 61% 29.97 in 10.0 mi SW 9.2 mph - N/A   Clear
8:53 PM 84.0 °F 90.2 °F 73.0 °F 69% 29.98 in 10.0 mi SSW 6.9 mph - N/A   Clear
9:53 PM 82.0 °F 87.4 °F 73.0 °F 74% 29.99 in 10.0 mi SW 5.8 mph - N/A   Clear
10:53 PM 81.0 °F 86.2 °F 73.9 °F 79% 29.99 in 10.0 mi SW 5.8 mph - N/A   Clear
11:53 PM 80.1 °F 85.1 °F 75.0 °F 85% 29.99 in 10.0 mi SSW 6.9 mph - N/A   Clear